Location: Darmstadt
(49.8706°N, 8.6494°E)
Time: 06:25:03
(UTC+01:00)

CZ-4B R/B - Pass Details

Date: 31 October 2020
Orbit: 388 x 461 km, 97.6° (Epoch: 03 December)

Event Time Altitude Azimuth Distance (km) Brightness Sun altitude
Rises 18:15:15 0° 12° (NNE) 2,384 4.9 -12.0°
Reaches altitude 10° 18:17:17 10° 12° (NNE) 1,501 3.9 -12.3°
Maximum altitude 18:20:29 82° 286° (WNW) 418 1.2 -12.8°
Drops below altitude 10° 18:23:35 10° 197° (SSW) 1,451 4.3 -13.3°
Sets 18:25:31 0° 197° (SSW) 2,295 5.3 -13.6°
